Tucson, AZ

10:27 PM MST on December 13, 2017 (GMT -0700)
Tucson International

Weather History for KTUS - November, 2014

Change the Weather History Date:

Saturday, November 22, 2014

  Actual Average Record
Temperature  
Mean Temperature 55 °F 57 °F  
Max Temperature 71 °F 71 °F 90 °F (1924)
Min Temperature 39 °F 44 °F 24 °F (1979)
Degree Days  
Heating Degree Days 10 8  
Month to date heating degree days 78 108  
Since 1 July heating degree days 78 132  
Cooling Degree Days 0 0  
Month to date cooling degree days 41 25  
Year to date cooling degree days 3615 3144  
Growing Degree Days 5 (Base 50)    
Moisture  
Dew Point 30 °F    
Average Humidity 45    
Maximum Humidity 73    
Minimum Humidity 16    
Precipitation  
Precipitation 0.00 in 0.02 in 2.09 in (1931)
Month to date precipitation 0.00 0.38  
Year to date precipitation 8.02 10.47  
Sea Level Pressure  
Sea Level Pressure 30.00 in    
Wind  
Wind Speed 6 mph (SSE)    
Max Wind Speed 10 mph    
Max Gust Speed 14 mph    
Visibility 10 miles    
Events      
T = Trace of Precipitation, MM = Missing Value Source: NWS Daily Summary

Daily Weather History Graph

Daily Weather History Graph

Search for Another Location

Airport or City:

Trip Planner

Search our weather history database for the weather conditions in past years. The results will help you decide how hot, cold, wet, or windy it might be!

Date:

Astronomy

Nov. 22, 2014 Rise Set
Actual Time 6:58 AM MST 5:20 PM MST
Civil Twilight 6:32 AM MST 5:46 PM MST
Nautical Twilight 6:02 AM MST 6:16 PM MST
Astronomical Twilight 5:33 AM MST 6:46 PM MST
Moon 7:00 AM MST (11/22) 5:52 PM MST (11/22)
Length of Visible Light 11h 14m
Length of Day
10h 21m
New Moon, 0% of the Moon is Illuminated
Nov 22
New Moon
Nov 29
First Quarter
Dec 6
Full
Dec 14
Last Quarter
Dec 21
New

Hourly Weather History & Observations

Time (MST) Temp. Windchill Dew Point Humidity Pressure Visibility Wind Dir Wind Speed Gust Speed Precip Events Conditions
12:53 AM 46.0 °F 43.1 °F 36.0 °F 68% 29.98 in 10.0 mi WSW 5.8 mph - N/A   Clear
1:53 AM 45.0 °F 41.8 °F 36.0 °F 71% 29.97 in 10.0 mi SSE 5.8 mph - N/A   Clear
2:53 AM 44.1 °F 40.1 °F 35.1 °F 71% 29.98 in 10.0 mi SSE 6.9 mph - N/A   Clear
3:53 AM 45.0 °F 40.6 °F 36.0 °F 71% 30.00 in 10.0 mi ESE 8.1 mph - N/A   Clear
4:53 AM 44.1 °F 40.1 °F 33.1 °F 65% 30.00 in 10.0 mi ESE 6.9 mph - N/A   Clear
5:53 AM 41.0 °F 36.4 °F 32.0 °F 70% 30.03 in 10.0 mi SE 6.9 mph - N/A   Clear
6:53 AM 41.0 °F 35.2 °F 34.0 °F 76% 30.06 in 10.0 mi SSE 9.2 mph - N/A   Clear
7:53 AM 45.0 °F 40.6 °F 36.0 °F 71% 30.08 in 10.0 mi SSE 8.1 mph - N/A   Clear
8:53 AM 48.9 °F - 35.1 °F 59% 30.09 in 10.0 mi SSE 6.9 mph - N/A   Clear
9:53 AM 54.0 °F - 36.0 °F 51% 30.09 in 10.0 mi SSE 5.8 mph - N/A   Clear
10:53 AM 60.1 °F - 33.1 °F 36% 30.07 in 10.0 mi South 3.5 mph - N/A   Clear
11:53 AM 63.0 °F - 33.1 °F 33% 30.06 in 10.0 mi North 4.6 mph - N/A   Clear
12:53 PM 64.9 °F - 27.0 °F 24% 30.02 in 10.0 mi Variable 5.8 mph - N/A   Clear
1:53 PM 69.1 °F - 28.0 °F 22% 29.98 in 10.0 mi Calm Calm - N/A   Clear
2:53 PM 70.0 °F - 28.0 °F 21% 29.96 in 10.0 mi Calm Calm - N/A   Clear
3:53 PM 70.0 °F - 21.0 °F 16% 29.94 in 10.0 mi WNW 8.1 mph - N/A   Clear
4:53 PM 68.0 °F - 25.0 °F 20% 29.95 in 10.0 mi North 3.5 mph - N/A   Clear
5:53 PM 64.0 °F - 25.0 °F 23% 29.97 in 10.0 mi NNW 5.8 mph - N/A   Clear
6:53 PM 62.1 °F - 27.0 °F 26% 29.97 in 10.0 mi NNW 5.8 mph - N/A   Clear
7:53 PM 57.9 °F - 27.0 °F 31% 29.96 in 10.0 mi South 3.5 mph - N/A   Clear
8:53 PM 55.0 °F - 25.0 °F 31% 29.96 in 10.0 mi South 9.2 mph - N/A   Clear
9:53 PM 51.1 °F - 24.1 °F 35% 29.96 in 10.0 mi SSE 5.8 mph - N/A   Clear
10:53 PM 50.0 °F - 24.1 °F 36% 29.98 in 10.0 mi SSE 3.5 mph - N/A   Clear
11:53 PM 48.0 °F - 25.0 °F 41% 29.96 in 10.0 mi SSE 6.9 mph - N/A   Clear